TimeCDT,TemperatureF,Dew PointF,Humidity,Sea Level PressureIn,VisibilityMPH,Wind Direction,Wind SpeedMPH,Gust SpeedMPH,PrecipitationIn,Events,Conditions,WindDirDegrees,DateUTC
12:53 AM,73.9,72.0,93,29.75,8.0,South,8.1,-,N/A,,Clear,170,2013-06-26 05:53:00
1:53 AM,73.9,72.0,93,29.74,10.0,South,6.9,-,N/A,,Partly Cloudy,180,2013-06-26 06:53:00
2:01 AM,73.4,71.6,94,29.75,9.0,South,9.2,-,0.00,Rain-Thunderstorm,Light Rain,180,2013-06-26 07:01:00
2:15 AM,73.4,71.6,94,29.74,10.0,South,10.4,-,0.01,Rain,Light Rain,180,2013-06-26 07:15:00
2:35 AM,73.4,71.6,94,29.73,10.0,South,11.5,-,0.01,Thunderstorm,Scattered Clouds,170,2013-06-26 07:35:00
2:50 AM,73.4,71.6,94,29.73,10.0,South,8.1,-,0.01,Rain,Light Rain,180,2013-06-26 07:50:00
2:53 AM,73.0,71.1,93,29.71,10.0,South,6.9,-,0.01,Rain-Thunderstorm,Light Rain,180,2013-06-26 07:53:00
3:10 AM,71.6,71.6,100,29.76,7.0,SW,4.6,-,0.02,Rain-Thunderstorm,Light Rain,220,2013-06-26 08:10:00
3:40 AM,71.6,71.6,100,29.74,6.0,North,5.8,-,0.05,Rain-Thunderstorm,Light Thunderstorms and Rain,10,2013-06-26 08:40:00
3:53 AM,73.0,71.1,93,29.72,2.5,NNW,8.1,-,0.12,Rain-Thunderstorm,Thunderstorms and Rain,330,2013-06-26 08:53:00
4:03 AM,71.6,71.6,100,29.74,3.0,West,4.6,-,0.10,Rain-Thunderstorm,Thunderstorms and Rain,280,2013-06-26 09:03:00
4:15 AM,71.6,71.6,100,29.74,2.5,West,9.2,-,0.13,Rain-Thunderstorm,Rain,260,2013-06-26 09:15:00
4:20 AM,69.8,69.8,100,29.74,3.0,West,6.9,-,0.18,Rain-Thunderstorm,Heavy Thunderstorms and Rain,280,2013-06-26 09:20:00
4:44 AM,68.0,68.0,100,29.74,4.0,West,6.9,-,0.22,Rain-Thunderstorm,Rain,270,2013-06-26 09:44:00
4:53 AM,66.9,66.9,100,29.72,3.0,Calm,Calm,-,0.25,Rain-Thunderstorm,Heavy Thunderstorms and Rain,0,2013-06-26 09:53:00
5:03 AM,66.2,66.2,100,29.73,5.0,SW,4.6,-,0.02,Rain-Thunderstorm,Thunderstorms and Rain,230,2013-06-26 10:03:00
5:20 AM,66.2,66.2,100,29.72,8.0,Calm,Calm,-,0.03,Rain-Thunderstorm,Light Thunderstorms and Rain,0,2013-06-26 10:20:00
5:53 AM,66.0,66.0,100,29.70,3.0,Calm,Calm,-,0.11,Rain-Thunderstorm,Heavy Thunderstorms and Rain,0,2013-06-26 10:53:00
5:55 AM,66.2,66.2,100,29.72,2.5,Calm,Calm,-,0.01,Rain,Heavy Rain,0,2013-06-26 10:55:00
6:53 AM,66.0,66.0,100,29.71,5.0,Variable,3.5,-,0.14,Rain,Light Rain,0,2013-06-26 11:53:00
7:01 AM,66.2,66.2,100,29.75,6.0,West,8.1,16.1,0.00,Rain,Light Rain,280,2013-06-26 12:01:00
7:13 AM,66.2,66.2,100,29.75,4.0,North,4.6,-,0.01,Rain,Rain,10,2013-06-26 12:13:00
7:28 AM,66.2,66.2,100,29.77,3.0,North,5.8,-,0.04,Rain,Heavy Rain,360,2013-06-26 12:28:00
7:32 AM,66.2,66.2,100,29.76,2.5,Calm,Calm,-,0.06,Rain,Heavy Rain,0,2013-06-26 12:32:00
7:43 AM,66.2,66.2,100,29.77,5.0,Calm,Calm,-,0.08,Rain,Light Rain,0,2013-06-26 12:43:00
7:53 AM,66.9,66.9,100,29.75,5.0,NE,3.5,-,0.09,Rain,Rain,50,2013-06-26 12:53:00
8:26 AM,69.8,68.0,94,29.79,10.0,Calm,Calm,-,0.01,,Mostly Cloudy,0,2013-06-26 13:26:00
8:34 AM,69.8,68.0,94,29.79,10.0,Calm,Calm,-,0.01,,Mostly Cloudy,0,2013-06-26 13:34:00
8:53 AM,70.0,69.1,97,29.77,10.0,East,3.5,-,0.01,,Overcast,80,2013-06-26 13:53:00
9:13 AM,71.6,69.8,94,29.80,10.0,ESE,3.5,-,N/A,,Overcast,120,2013-06-26 14:13:00
9:53 AM,72.0,68.0,87,29.76,10.0,Calm,Calm,-,N/A,,Partly Cloudy,0,2013-06-26 14:53:00
10:53 AM,73.0,69.1,87,29.77,10.0,Variable,3.5,-,N/A,,Mostly Cloudy,0,2013-06-26 15:53:00
11:31 AM,73.4,69.8,88,29.77,10.0,South,3.5,-,N/A,,Partly Cloudy,170,2013-06-26 16:31:00
11:53 AM,75.0,69.1,82,29.73,10.0,East,4.6,-,N/A,,Clear,100,2013-06-26 16:53:00
12:43 PM,77.0,71.6,83,29.78,10.0,WSW,6.9,-,N/A,,Mostly Cloudy,240,2013-06-26 17:43:00
12:53 PM,75.9,71.1,85,29.77,10.0,WSW,5.8,-,N/A,,Mostly Cloudy,240,2013-06-26 17:53:00
1:27 PM,75.2,71.6,89,29.78,10.0,SW,4.6,-,N/A,,Mostly Cloudy,230,2013-06-26 18:27:00
1:34 PM,75.2,69.8,83,29.78,10.0,SW,5.8,-,N/A,,Scattered Clouds,230,2013-06-26 18:34:00
1:53 PM,75.9,70.0,82,29.77,10.0,SSW,3.5,-,N/A,,Scattered Clouds,200,2013-06-26 18:53:00
2:53 PM,80.1,66.0,62,29.75,10.0,Calm,Calm,-,N/A,,Scattered Clouds,0,2013-06-26 19:53:00
3:53 PM,82.0,66.9,60,29.75,10.0,WSW,5.8,-,N/A,,Clear,250,2013-06-26 20:53:00
4:53 PM,80.1,68.0,67,29.77,10.0,West,5.8,-,N/A,,Mostly Cloudy,270,2013-06-26 21:53:00
5:53 PM,81.0,69.1,67,29.74,10.0,Calm,Calm,-,N/A,,Scattered Clouds,0,2013-06-26 22:53:00
6:53 PM,80.1,71.1,74,29.74,10.0,Calm,Calm,-,N/A,,Clear,0,2013-06-26 23:53:00
7:53 PM,79.0,72.0,79,29.75,10.0,Calm,Calm,-,N/A,,Clear,0,2013-06-27 00:53:00
8:53 PM,75.9,73.0,91,29.75,10.0,Calm,Calm,-,N/A,,Clear,0,2013-06-27 01:53:00
9:53 PM,75.0,73.0,94,29.76,10.0,Calm,Calm,-,N/A,,Clear,0,2013-06-27 02:53:00
10:53 PM,73.9,73.0,97,29.78,10.0,WNW,3.5,-,N/A,,Partly Cloudy,290,2013-06-27 03:53:00
11:53 PM,73.0,70.0,90,29.79,10.0,NW,6.9,-,N/A,,Partly Cloudy,320,2013-06-27 04:53:00